Preview of NWS' New Version of Forecast
This preview is not operational and should not be used for support decisions.

Regional Weather Roundup (RWR)

Issued by National Weather Service (NWS)

                            
000
ASUS43 KDMX 241906
RWRIA 

WEATHER ROUNDUP FOR IOWA
NATIONAL WEATHER SERVICE DES MOINES IA
200 PM CDT MON JUN 24 2019

NOTE: "FAIR" INDICATES FEW OR NO CLOUDS BELOW 12,000 FEET WITH NO
SIGNIFICANT WEATHER AND/OR OBSTRUCTIONS TO VISIBILITY.

* - THESE STATIONS ARE NOT NWS STATIONS...THUS NOT UNDER NWS
QUALITY CONTROL.  THEY ALSO DO NOT REPORT WEATHER SUCH 
AS PRECIPITATION OR FOG.  

IAZ001>003-012>014-020>022-031>034-043>046-242000-
   NORTHWEST IOWA
  
CITY           SKY/WX    TMP DP  RH WIND       PRES   REMARKS
CARROLL *      MOSUNNY   75  57  53 W17       29.74F                  
CHEROKEE *     SUNNY     76  61  59 W12       29.72F                  
DENISON *      SUNNY     75  57  53 W12G18    29.76F                  
LE MARS *      SUNNY     77  57  50 W14       29.72S                  
SHELDON *      MOSUNNY   72  64  78 W8        29.70S                  
SIOUX CITY     MOSUNNY   77  59  53 W10G20    29.73F                  
SPENCER        MOSUNNY   75  57  53 W15G22    29.71F                  
STORM LAKE *   SUNNY     73  57  56 SW15      29.70F                  
$$
 
IAZ055>058-069>071-079>083-090>094-242000-
   SOUTHWEST IOWA
  
CITY           SKY/WX    TMP DP  RH WIND       PRES   REMARKS
ATLANTIC *     SUNNY     75  55  50 W15       29.76S                  
AUDUBON *      MOSUNNY   75  57  53 CALM      29.77F                  
CLARINDA *     MOSUNNY   77  57  50 W12       29.81S                  
COUNCIL BLFS * MOSUNNY   75  57  53 W15G23    29.76F                  
CRESTON *      PTSUNNY   72  55  56 W10G17    29.78S                  
HARLAN  *      SUNNY     75  59  57 W15       29.76F                  
LAMONI         MOSUNNY   74  56  53 W13G23    29.79S                  
RED OAK *      MOSUNNY   77  55  47 SW14G20   29.78S                  
SHENANDOAH *   SUNNY     77  59  53 W15       29.78S                  
$$
 
IAZ047>049-059>061-072>074-084-242000-
   CENTRAL IOWA
  
CITY           SKY/WX    TMP DP  RH WIND       PRES   REMARKS
AMES           PTSUNNY   73  57  57 W15       29.73S                  
ANKENY *       MOSUNNY   72  57  60 NW12G18   29.74S                  
BOONE *        PTSUNNY   72  61  68 W13G21    29.73S                  
CHARITON *     MOSUNNY   73  59  60 W16       29.76S                  
DES MOINES     PTSUNNY   75  55  49 W14G29    29.73S                  
GRINNELL*      MOSUNNY   71  60  67 W16G24    29.73F                  
KNOXVILLE *    MOSUNNY   72  59  64 W14G24    29.74S                  
MARSHALLTOWN   PTSUNNY   72  61  68 W16G28    29.70S                  
NEWTON *       MOSUNNY   73  61  64 W14G23    29.73S                  
PELLA *        SUNNY     73  58  59 W14       29.75R                  
$$
 
IAZ004>006-015-016-023>025-035-036-242000-
   NORTH CENTRAL IOWA
  
CITY           SKY/WX    TMP DP  RH WIND       PRES   REMARKS
ALGONA *       MOSUNNY   72  59  64 SW15      29.70S                  
CLARION *      PTSUNNY   72  59  64 W17       29.71S                  
ESTHERVILLE    PTSUNNY   71  60  68 SW14      29.70S                  
FORT DODGE *   MOSUNNY   71  58  63 W14G20    29.73F                  
MASON CITY     MOSUNNY   70  61  73 SW12      29.68F                  
FOREST CITY *  PTSUNNY   72  55  56 W14       29.68F                  
IOWA FALLS *   PTSUNNY   71  60  68 W15G22    29.72S                  
$$

IAZ007>011-017>019-026>030-037>042-050>054-066-242000-
   NORTHEAST IOWA
  
CITY           SKY/WX    TMP DP  RH WIND       PRES   REMARKS
CEDAR RAPIDS   CLOUDY    72  62  71 W22G29    29.65F                  
CHARLES CITY * PTSUNNY   70  61  73 W16G24    29.67R                  
CLINTON *      FAIR      80  65  59 SW24G30   29.63S HX  82           
DECORAH *        N/A     70  59  68 NW10G17   29.62S                  
DUBUQUE        PTSUNNY   70  62  76 W20G28    29.62R                  
MONTICELLO *   PTSUNNY   70  66  88 W13G20    29.64S                  
OELWEIN *      PTSUNNY   70  64  83 W17       29.65F                  
WATERLOO       FAIR      72  58  61 W16G22    29.65F                  
$$
 
IAZ064-065-067-068-078-242000-
   EAST CENTRAL IOWA
  
CITY           SKY/WX    TMP DP  RH WIND       PRES   REMARKS
DAVENPORT      FAIR      75  61  61 W21G28    29.67R                  
IOWA CITY      CLOUDY    72  62  71 W14       29.68S                  
MT. PLEASANT * PTSUNNY   73  63  68 W15G21    29.72S                  
MUSCATINE *    CLOUDY    73  63  68 W17       29.69S                  
QUAD CITIES    PTSUNNY   77  62  59 W20G28    29.66R                  
$$
 
IAZ062-063-075>077-085>089-095>099-242000-
   SOUTHEAST IOWA
  
CITY           SKY/WX    TMP DP  RH WIND       PRES   REMARKS
BURLINGTON     MOSUNNY   76  62  62 W15G25    29.71S                  
FAIRFIELD *    PTSUNNY   72  63  73 W13G24    29.71F                  
FORT MADISON * MOSUNNY   73  64  73 W14G23    29.73S                  
KEOKUK *       MOSUNNY   73  61  64 W15G24    29.73R                  
OSKALOOSA *    PTSUNNY   71  60  68 NW23      29.73S                  
CENTERVILLE *  FAIR      72  61  68 NW16G23   29.78S                  
OTTUMWA        MOSUNNY   74  61  63 W14G25    29.73S                  
WASHINGTON *   PTSUNNY   70  70 100 SW20      29.69S                  
$$

ABBREVIATIONS USED IN REMARKS
   TC - TEMPERATURES IN CELSIUS
  WCI - WIND CHILL INDEX
   HX - HEAT INDEX
  VSB - VISIBILITY  
$$